#timestamp,LO_Frequency,Hit,StdDev 
1620882015.6,286047000.5,N
1620882035.5,286047000.4,N
1620882055.3,286047002.8,N
1620882075.2,286047001.0,N
1620882095.9,286046998.4,N
1620882115.7,286047000.2,N
1620882135.6,286046997.0,N
1620882155.4,286046996.5,N
1620882175.2,286046994.9,N
1620882195.1,286046999.1,N
1620882196.0,286046999.1,N
1620882215.8,286046996.5,N
1620882235.7,286046996.5,N
1620882255.5,286046998.6,N
1620882275.3,286047000.2,N
1620882295.2,286046998.1,N
1620882315.9,286046997.4,N
1620882335.7,286046996.5,N
1620882355.6,286046998.8,N
1620882375.4,286047000.4,N
1620882395.2,286047003.8,N
1620882415.1,286047001.7,N
1620882416.0,286047001.7,N
1620882435.8,286046998.5,N
1620882455.7,286046999.0,N
1620882475.5,286047000.3,N
1620882495.3,286046999.9,N
1620882515.2,286047001.6,N
1620882535.0,286047003.6,N
1620882535.9,286047003.6,N
1620882555.8,286047002.9,N
1620882575.6,286047003.7,N
1620882595.4,286047003.8,N
1620882615.3,286047002.7,N
1620882635.1,286047001.3,N
1620882655.8,286047006.0,N
1620882675.7,286047003.6,N
1620882695.5,286047002.4,N
1620882715.4,286047002.1,N
1620882735.2,286047002.1,N
1620882755.0,286047002.5,N
1620882755.9,286047002.5,N
1620882775.8,286047004.1,N
1620882795.6,286047002.7,N
1620882815.5,286047001.4,N
1620882835.3,286047001.9,N
1620882855.1,286047001.3,N
1620882875.9,286046999.7,N
1620882895.7,286046999.1,N
1620882915.6,286046999.8,N
1620882935.4,286047001.5,N
1620882955.2,286047004.4,N
1620882975.1,286047004.2,N
1620882976.0,286047004.2,N
1620882995.8,286047005.3,Y
1620883015.7,286047001.7,P
1620883035.5,286047003.1,P
1620883055.3,286047001.5,N
1620883075.2,286047004.4,Y
1620883095.0,286046998.6,P
1620883095.9,286046998.6,N
1620883115.8,286046999.2,N
1620883135.6,286047000.7,N
1620883155.4,286046998.6,N
1620883175.3,286046998.7,N
1620883195.1,286046998.1,N
1620883215.9,286046999.1,N
1620883235.7,286046999.4,N
1620883255.5,286046999.2,N
1620883275.4,286046996.4,Y
1620883295.2,286046993.4,P
1620883315.0,286046993.9,N
1620883315.9,286046993.9,N
1620883335.8,286046992.4,Y
1620883355.6,286046995.0,P
1620883375.5,286046998.7,P
1620883395.3,286046996.9,N
1620883415.1,286046997.9,N
1620883435.9,286046996.0,N
1620883455.7,286046995.4,Y
1620883475.6,286046999.7,P
1620883495.4,286047002.1,N
1620883515.2,286047001.4,N
1620883535.1,286047002.7,N
1620883536.0,286047002.7,N
1620883555.8,286047002.4,N
1620883575.6,286047000.8,N
1620883595.5,286046999.7,N
1620883615.3,286047002.7,N
1620883665.2,286047002.4,E
1620883675.1,286047001.1,N
1620883695.8,286046995.5,P
1620883715.7,286046999.1,N
1620883735.5,286046997.3,N
1620883755.4,286046996.6,N
1620883775.2,286046996.6,N
1620883795.0,286046999.1,N
1620883795.9,286046999.1,N
1620883815.8,286047000.6,N
1620883835.6,286047001.0,N
1620883855.5,286046999.3,N
1620883875.3,286046997.1,N
1620883895.1,286046995.1,N
1620883915.9,286046993.4,Y
1620883935.7,286046995.0,P
1620883955.6,286046996.7,N
1620883975.4,286046998.9,N
1620883995.2,286046999.5,N
1620884015.1,286046996.7,N
1620884016.0,286046996.7,N
1620884035.8,286046996.5,N
1620884055.6,286046997.2,N
1620884075.5,286046993.9,Y
1620884095.3,286046999.5,P
1620884115.2,286046997.7,N
1620884135.0,286046996.9,P
1620884135.9,286046996.9,Y
1620884155.7,286047001.1,P
1620884175.6,286047001.8,N
1620884195.4,286047001.4,N
1620884215.3,286047000.9,N
1620884235.1,286046999.9,N
1620884255.8,286047000.5,N
1620884275.7,286047000.4,N
1620884295.5,286046998.8,N
1620884315.4,286046998.8,N
1620884335.2,286047001.0,N
1620884355.0,286047000.5,N
1620884355.9,286047000.5,N
1620884375.8,286047000.5,N
1620884395.6,286046999.9,N
1620884415.4,286047000.1,N
1620884435.3,286047001.2,N
1620884455.1,286046998.7,N
1620884475.9,286047000.8,N
1620884495.7,286046998.6,N
1620884515.6,286047000.2,N
1620884535.4,286047002.8,N
1620884555.2,286047001.4,N
1620884575.1,286047002.6,N
1620884576.0,286047002.6,N
1620884595.8,286047004.3,Y
1620884615.6,286047004.3,P
1620884635.5,286047002.3,N
1620884655.3,286047002.8,N
1620884675.2,286047003.4,N
1620884695.9,286047004.1,Y
1620884715.7,286047001.0,P
1620884735.6,286046999.3,N
1620884755.4,286046999.8,N
1620884775.2,286047002.4,N
1620884795.1,286047002.1,N
1620884796.0,286047002.1,N
1620884815.8,286047002.5,N
1620884835.7,286047002.7,N
1620884855.5,286047000.4,N
1620884875.3,286046998.6,N
1620884895.2,286046999.9,N
1620884915.0,286047004.3,Y
1620884915.9,286047004.3,P
1620884935.7,286047002.4,N
1620884955.6,286046998.6,N
1620884975.4,286046998.4,N
1620884995.3,286047000.3,N
1620885015.1,286046999.1,N
1620885035.8,286047001.0,N
1620885055.7,286047002.4,N
1620885075.5,286047001.4,N
1620885095.4,286046999.7,N
1620885115.2,286047001.6,N
1620885135.0,286047002.5,N
1620885135.9,286047002.5,N
1620885155.8,286047002.8,N
1620885175.6,286047004.3,N
1620885195.5,286046998.1,N
1620885215.3,286046998.1,N
1620885235.1,286046998.7,N
1620885255.9,286046999.4,N
1620885275.7,286046998.4,N
1620885295.6,286047000.8,N
1620885315.4,286046997.3,N
1620885335.2,286046995.3,N
1620885355.1,286046995.1,N
1620885356.0,286046995.1,N
1620885375.8,286046994.9,N
1620885395.6,286046999.1,N
1620885415.5,286047000.0,N
1620885435.3,286047002.5,N
1620885455.2,286046999.0,N
1620885475.9,286046997.6,N
1620885495.7,286046996.6,N
1620885515.6,286046999.0,N
1620885535.4,286046997.8,N
1620885555.2,286046996.5,N
1620885575.1,286046999.5,N
1620885576.0,286046999.5,N
1620885595.8,286046996.7,N
